Precipitable_Water
0.59 0.59 0.57 0.56 0.56 0.53 0.50 0.44 0.35 0.27 0.27 0.31 0.29 0.34 0.33 0.33 0.35 0.35 0.37 0.36 0.32 0.30 0.30 0.35 0.33 0.34 0.45 0.74 1.00 1.22 1.33 1.38 1.44 1.46 1.43 1.35 1.31 1.34
0.50 0.52 0.54 0.58 0.59 0.57 0.52 0.50 0.49 0.42 0.31 0.37 0.35 0.36 0.37 0.38 0.37 0.34 0.30 0.30 0.34 0.32 0.31 0.32 0.31 0.31 0.31 0.37 0.50 0.73 0.95 1.08 1.16 1.29 1.35 1.38 1.37 1.35
0.43 0.43 0.44 0.47 0.47 0.51 0.57 0.59 0.54 0.51 0.40 0.42 0.45 0.44 0.40 0.38 0.37 0.37 0.36 0.32 0.29 0.32 0.32 0.32 0.32 0.30 0.30 0.31 0.34 0.41 0.49 0.63 0.81 0.92 1.06 1.17 1.28 1.33
0.30 0.31 0.34 0.38 0.38 0.42 0.48 0.50 0.51 0.54 0.54 0.49 0.51 0.49 0.46 0.45 0.41 0.37 0.36 0.35 0.29 0.31 0.34 0.31 0.33 0.31 0.32 0.32 0.32 0.32 0.35 0.42 0.50 0.62 0.74 0.83 0.94 1.11
0.29 0.30 0.30 0.30 0.30 0.34 0.35 0.38 0.40 0.45 0.50 0.48 0.49 0.56 0.52 0.51 0.45 0.42 0.37 0.36 0.36 0.38 0.37 0.34 0.33 0.34 0.34 0.35 0.35 0.35 0.33 0.33 0.37 0.46 0.56 0.63 0.75 0.83
0.28 0.27 0.27 0.27 0.26 0.27 0.28 0.32 0.37 0.38 0.42 0.45 0.45 0.49 0.55 0.55 0.52 0.45 0.39 0.36 0.34 0.35 0.33 0.33 0.35 0.32 0.32 0.37 0.38 0.38 0.37 0.35 0.32 0.33 0.38 0.50 0.60 0.69
0.26 0.27 0.28 0.29 0.29 0.30 0.30 0.28 0.27 0.27 0.30 0.33 0.35 0.39 0.43 0.49 0.50 0.50 0.43 0.39 0.36 0.39 0.35 0.32 0.29 0.30 0.34 0.39 0.40 0.40 0.39 0.36 0.34 0.31 0.31 0.34 0.41 0.49
0.27 0.28 0.29 0.30 0.29 0.31 0.31 0.29 0.29 0.29 0.25 0.24 0.25 0.28 0.34 0.41 0.51 0.50 0.47 0.40 0.34 0.41 0.36 0.32 0.33 0.29 0.34 0.40 0.42 0.42 0.39 0.36 0.35 0.34 0.31 0.31 0.31 0.33
0.24 0.25 0.27 0.29 0.30 0.29 0.28 0.27 0.29 0.28 0.28 0.28 0.25 0.25 0.27 0.31 0.37 0.43 0.47 0.41 0.37 0.41 0.38 0.32 0.34 0.28 0.33 0.35 0.39 0.39 0.38 0.36 0.34 0.31 0.29 0.30 0.31 0.31
0.23 0.25 0.26 0.24 0.25 0.26 0.27 0.25 0.25 0.26 0.27 0.27 0.27 0.28 0.30 0.32 0.35 0.38 0.46 0.48 0.47 0.44 0.42 0.33 0.34 0.25 0.31 0.39 0.40 0.39 0.37 0.35 0.31 0.29 0.29 0.28 0.29 0.30
0.23 0.21 0.21 0.20 0.21 0.22 0.21 0.20 0.21 0.25 0.25 0.27 0.29 0.29 0.30 0.31 0.32 0.39 0.36 0.40 0.39 0.40 0.44 0.39 0.32 0.28 0.33 0.36 0.41 0.41 0.37 0.32 0.32 0.32 0.30 0.30 0.30 0.28
0.20 0.18 0.19 0.19 0.18 0.18 0.18 0.21 0.23 0.24 0.28 0.28 0.27 0.27 0.29 0.28 0.29 0.36 0.41 0.35 0.35 0.37 0.43 0.39 0.31 0.32 0.28 0.34 0.36 0.37 0.37 0.34 0.33 0.32 0.32 0.32 0.30 0.26
0.19 0.18 0.19 0.19 0.18 0.18 0.21 0.26 0.27 0.31 0.31 0.33 0.33 0.32 0.30 0.26 0.30 0.32 0.43 0.41 0.37 0.40 0.44 0.39 0.33 0.35 0.32 0.29 0.33 0.37 0.36 0.33 0.33 0.31 0.32 0.32 0.30 0.26
0.20 0.21 0.21 0.19 0.18 0.21 0.27 0.30 0.32 0.34 0.35 0.34 0.32 0.30 0.30 0.29 0.31 0.36 0.42 0.45 0.49 0.46 0.42 0.44 0.39 0.37 0.33 0.28 0.25 0.32 0.33 0.34 0.33 0.30 0.31 0.32 0.30 0.28
0.24 0.23 0.22 0.18 0.20 0.22 0.28 0.33 0.33 0.34 0.33 0.31 0.31 0.30 0.32 0.33 0.37 0.40 0.42 0.45 0.47 0.46 0.42 0.38 0.42 0.41 0.36 0.30 0.27 0.28 0.28 0.29 0.32 0.31 0.31 0.30 0.29 0.27
0.24 0.23 0.19 0.18 0.22 0.25 0.27 0.31 0.31 0.33 0.33 0.32 0.34 0.38 0.41 0.39 0.40 0.44 0.42 0.43 0.40 0.38 0.43 0.42 0.47 0.43 0.37 0.33 0.31 0.28 0.30 0.26 0.31 0.31 0.32 0.32 0.31 0.30
0.22 0.18 0.16 0.17 0.20 0.22 0.24 0.26 0.29 0.31 0.32 0.34 0.34 0.36 0.39 0.40 0.41 0.43 0.42 0.42 0.38 0.38 0.40 0.44 0.47 0.45 0.41 0.37 0.30 0.31 0.31 0.30 0.30 0.30 0.29 0.25 0.25 0.26
0.18 0.16 0.16 0.19 0.21 0.22 0.23 0.24 0.28 0.28 0.28 0.30 0.33 0.34 0.35 0.37 0.37 0.39 0.40 0.38 0.36 0.36 0.35 0.38 0.37 0.35 0.36 0.37 0.38 0.31 0.31 0.30 0.32 0.31 0.27 0.22 0.22 0.26
0.16 0.16 0.18 0.20 0.21 0.22 0.22 0.23 0.23 0.27 0.28 0.26 0.27 0.30 0.32 0.34 0.35 0.35 0.36 0.36 0.35 0.34 0.34 0.34 0.32 0.31 0.28 0.25 0.33 0.39 0.33 0.32 0.31 0.27 0.25 0.24 0.23 0.25
0.17 0.18 0.19 0.20 0.20 0.21 0.21 0.20 0.21 0.23 0.25 0.25 0.26 0.27 0.30 0.29 0.30 0.32 0.33 0.32 0.32 0.32 0.31 0.33 0.33 0.32 0.29 0.26 0.26 0.31 0.38 0.32 0.30 0.28 0.27 0.29 0.29 0.29
0.18 0.18 0.18 0.18 0.18 0.18 0.20 0.20 0.20 0.21 0.23 0.24 0.26 0.24 0.25 0.26 0.27 0.28 0.28 0.29 0.30 0.31 0.30 0.30 0.34 0.39 0.39 0.38 0.30 0.30 0.32 0.35 0.34 0.29 0.28 0.25 0.23 0.22
0.19 0.18 0.18 0.18 0.18 0.19 0.19 0.18 0.18 0.18 0.19 0.20 0.22 0.22 0.22 0.22 0.22 0.22 0.23 0.23 0.24 0.27 0.28 0.31 0.33 0.33 0.32 0.31 0.30 0.30 0.30 0.32 0.33 0.32 0.32 0.31 0.27 0.22
0.19 0.19 0.19 0.19 0.19 0.19 0.18 0.18 0.18 0.17 0.18 0.19 0.19 0.21 0.20 0.19 0.20 0.22 0.22 0.22 0.22 0.22 0.23 0.24 0.26 0.28 0.27 0.26 0.26 0.27 0.27 0.28 0.27 0.25 0.25 0.26 0.27 0.27
Wind_Speed
35 36 37 37 38 39 39 39 38 38 36 34 33 33 33 32 30 29 28 28 28 27 27 27 26 26 28 30 31 33 32 32 32 32 32 32 32 33
35 35 35 36 37 39 41 42 43 43 43 40 39 38 38 37 35 34 33 32 30 30 29 28 28 28 27 28 30 32 33 34 35 35 35 35 35 35
38 39 39 39 39 39 38 40 42 44 47 46 45 43 42 41 40 39 36 35 35 33 32 31 31 30 29 28 29 30 30 32 33 35 36 37 36 36
42 42 42 42 43 42 42 41 42 41 43 47 46 46 46 45 44 42 41 40 39 38 37 35 34 33 32 31 30 30 30 30 30 31 32 34 36 38
43 44 44 45 46 46 47 47 47 47 47 47 46 45 47 47 47 46 45 43 42 40 40 38 37 36 35 34 33 32 31 30 31 31 31 31 32 33
45 46 47 47 48 49 49 50 50 50 50 50 50 49 47 47 48 48 47 46 45 44 43 42 41 41 40 38 36 35 34 33 32 31 31 32 32 32
49 49 49 49 51 51 50 51 51 52 53 54 53 53 51 49 48 48 48 46 46 45 44 44 44 41 40 40 40 38 36 35 34 34 33 32 33 33
51 52 53 53 53 53 53 54 54 54 55 55 56 56 55 54 52 50 49 47 46 46 44 43 43 43 43 43 42 41 39 38 37 36 35 34 34 34
56 56 56 54 54 54 56 56 56 57 58 58 59 58 58 57 57 55 54 51 49 46 45 43 43 44 44 44 43 42 40 39 39 39 38 37 36 35
56 55 55 57 57 57 57 57 57 57 57 57 59 61 61 60 59 59 57 53 51 48 46 45 43 44 43 42 42 42 41 39 39 38 38 38 37 36
54 55 53 53 53 54 55 55 56 57 57 58 61 62 64 64 63 61 60 53 51 50 47 46 43 43 42 42 42 42 40 39 38 37 37 37 37 36
50 47 45 44 44 43 44 45 47 48 49 53 55 59 61 62 63 64 62 60 57 52 49 47 44 42 40 42 41 41 39 38 38 37 36 36 35 35
42 39 37 38 38 38 38 38 38 38 40 43 47 51 55 58 59 60 60 58 56 54 48 47 46 43 41 38 39 39 38 37 37 36 35 35 34 34
37 35 35 36 36 33 33 32 31 32 33 37 40 40 40 44 48 51 53 52 52 51 47 45 44 44 41 41 39 39 38 38 37 36 36 36 35 34
34 33 34 35 32 30 28 28 27 26 28 32 28 25 26 29 32 37 42 42 43 43 44 45 44 44 42 41 40 39 38 38 38 37 36 36 35 35
32 32 33 32 30 27 25 23 21 21 23 25 16 15 10 14 21 25 28 32 34 36 38 41 41 41 40 41 41 39 39 37 35 36 36 35 35 36
31 32 32 29 28 26 24 23 21 18 17 16 11 8 1 9 14 17 19 23 27 30 30 34 37 38 38 38 39 39 39 38 37 36 36 36 36 36
31 31 29 27 26 24 22 20 17 15 14 11 9 6 3 8 12 14 16 17 21 23 25 27 29 32 34 36 38 38 38 37 36 37 37 36 36 36
30 28 26 24 22 21 19 18 16 14 13 11 9 7 4 5 8 10 12 15 17 19 21 23 26 28 29 31 34 34 35 35 35 35 35 35 35 36
26 24 22 21 20 19 18 18 17 16 14 13 12 10 11 11 11 12 13 15 16 18 20 22 23 25 27 29 30 32 33 32 32 32 33 34 36 37
21 20 21 21 20 20 18 18 16 16 15 13 12 13 12 13 15 16 17 17 18 19 20 21 22 23 24 26 27 29 30 31 31 31 32 34 36 36
22 22 21 21 20 18 17 16 16 16 16 17 16 16 16 16 16 17 18 19 20 20 20 20 20 22 23 24 26 29 31 32 32 33 32 32 32 32
21 20 20 19 18 17 16 16 15 14 15 16 19 20 20 19 20 20 20 20 21 22 22 22 22 23 24 25 25 26 27 28 29 30 31 32 33 34
Wind_Direction
289 286 284 281 278 276 274 274 273 272 270 269 268 268 268 268 267 267 268 266 264 263 261 258 259 259 256 252 250 249 248 248 247 247 248 248 247 247
291 290 288 285 282 278 275 272 270 270 269 267 265 266 266 265 266 267 267 266 264 263 260 257 258 259 257 255 253 251 250 250 250 250 249 250 249 248
291 289 287 286 283 281 280 276 272 269 268 267 265 264 263 263 264 265 264 264 263 261 259 258 257 257 257 255 254 253 253 252 251 251 251 250 249 249
291 289 287 285 283 281 279 277 275 275 272 269 266 263 261 261 261 260 261 263 262 258 257 258 257 256 255 255 253 253 253 252 252 252 252 252 251 250
292 290 288 286 284 281 279 277 274 272 270 270 269 265 263 260 258 258 260 260 260 257 255 255 255 255 255 254 253 252 252 252 252 252 252 252 252 252
293 291 289 286 285 283 281 277 275 273 271 269 268 266 264 261 259 258 258 257 257 256 255 255 255 256 255 252 251 251 252 252 253 253 253 252 252 252
294 292 289 286 285 282 280 279 277 273 271 269 267 265 263 261 259 257 256 256 256 254 255 255 255 253 251 249 249 250 251 252 253 253 253 253 254 253
294 292 290 287 285 282 279 277 275 273 271 269 267 264 262 260 259 256 255 253 253 252 253 253 252 251 250 249 248 248 249 252 253 254 254 255 255 254
294 292 290 287 285 283 281 278 275 273 271 268 266 264 262 259 258 256 252 252 251 251 250 251 252 251 250 249 246 246 248 250 253 253 253 254 255 255
296 293 290 288 285 283 281 279 275 273 270 268 266 264 261 260 256 254 251 251 249 248 248 249 251 251 248 245 244 245 247 249 251 251 252 253 254 255
298 296 294 291 288 286 284 281 278 274 272 269 267 265 261 258 255 251 246 245 244 246 247 247 249 247 244 244 244 245 246 247 247 249 251 252 253 254
301 300 299 298 296 292 289 287 284 280 276 274 270 266 262 257 254 246 244 242 244 244 245 245 245 242 244 244 243 241 243 245 246 249 250 249 251 253
304 304 303 304 303 298 295 292 288 287 284 282 278 271 264 256 251 242 240 240 240 240 242 242 239 239 240 241 240 240 242 244 244 247 247 248 250 253
305 306 306 307 308 304 302 298 294 294 292 293 288 278 266 255 245 237 236 236 236 234 237 236 237 237 238 239 239 240 242 243 245 247 247 248 250 253
305 305 307 310 308 308 304 304 300 298 303 309 299 285 269 251 234 228 223 226 227 230 233 233 236 235 236 237 238 239 241 243 244 246 245 249 250 252
306 306 308 309 307 307 304 307 308 307 311 323 309 314 285 214 210 212 212 214 223 229 231 231 233 235 236 237 238 239 240 242 242 243 247 248 250 252
307 307 308 307 306 305 305 300 303 306 316 328 331 326 306 185 191 197 205 215 224 224 226 229 232 235 237 237 237 238 239 241 243 244 246 250 252 253
310 309 308 307 305 304 302 304 298 299 307 314 323 325 265 214 209 214 214 214 218 217 224 228 234 238 239 238 237 238 239 240 241 244 248 250 251 252
311 309 309 308 307 305 301 298 294 293 296 294 293 276 259 210 198 203 207 216 221 225 229 235 236 237 237 235 235 236 237 239 242 245 248 249 251 253
314 313 313 312 310 307 303 298 289 284 285 286 274 266 252 242 232 231 230 231 232 236 239 241 240 241 238 237 237 236 236 238 242 245 248 251 252 255
321 319 317 315 311 307 303 299 288 281 275 275 271 261 257 252 249 245 245 244 246 246 247 246 244 241 240 237 236 237 236 240 243 247 253 254 255 256
322 320 318 316 312 309 305 300 293 282 275 267 265 264 260 257 255 253 251 249 248 248 247 247 243 242 241 241 241 241 242 246 248 251 254 254 254 255
327 325 323 321 319 314 310 303 296 289 283 276 268 262 260 259 257 258 255 253 251 249 249 249 248 246 245 244 244 244 245 248 250 252 255 255 257 257